| time (UTC) | temp C | wind direction | speed KPH | gust KPH | rain 1hr cm | rain 24hr cm | rain mn cm | humidity % | barometer mb |
| 20260831223705 | 22 | 5 | 0.0 | 0.0 | 0.00 | 0.00 | 0.00 | 76 | 1017.6 |
| 20260831222205 | 22 | 5 | 0.0 | 0.0 | 0.00 | 0.00 | 0.00 | 74 | 1017.5 |
| 20260831221704 | 22 | 5 | 0.0 | 1.6 | 0.00 | 0.00 | 0.00 | 74 | 1017.6 |
| 20260831221205 | 23 | 5 | 0.0 | 1.6 | 0.00 | 0.00 | 0.00 | 73 | 1017.6 |
| 20260831220704 | 23 | 5 | 0.0 | 1.6 | 0.00 | 0.00 | 0.00 | 73 | 1017.5 |
| 20260831220205 | 23 | 247 | 0.0 | 0.0 | 0.00 | 0.00 | 0.00 | 73 | 1017.5 |
| 20260831215705 | 23 | 247 | 0.0 | 1.6 | 0.00 | 0.00 | 0.00 | 71 | 1017.4 |
| 20260831215205 | 23 | 247 | 0.0 | 0.0 | 0.00 | 0.00 | 0.00 | 72 | 1017.4 |
| 20260831214205 | 23 | 247 | 0.0 | 1.6 | 0.00 | 0.00 | 0.00 | 70 | 1017.4 |
| 20260831213204 | 23 | 247 | 0.0 | 0.0 | 0.00 | 0.00 | 0.00 | 70 | 1017.4 |
| 20260831212205 | 23 | 247 | 0.0 | 0.0 | 0.00 | 0.00 | 0.00 | 71 | 1017.4 |
| 20260831211704 | 23 | 247 | 0.0 | 0.0 | 0.00 | 0.00 | 0.00 | 71 | 1017.5 |
| 20260831210704 | 23 | 247 | 0.0 | 1.6 | 0.00 | 0.00 | 0.00 | 69 | 1017.7 |
| 20260831210204 | 23 | 244 | 0.0 | 4.8 | 0.00 | 0.00 | 0.00 | 71 | 1017.7 |
| 20260831205704 | 23 | 236 | 0.0 | 3.2 | 0.00 | 0.00 | 0.00 | 69 | 1017.7 |
| 20260831202704 | 24 | 232 | 1.6 | 3.2 | 0.00 | 0.00 | 0.00 | 69 | 1017.7 |
| 20260831201705 | 24 | 223 | 0.0 | 3.2 | 0.00 | 0.00 | 0.00 | 70 | 1017.7 |
| 20260831200705 | 24 | 262 | 0.0 | 4.8 | 0.00 | 0.00 | 0.00 | 64 | 1017.7 |
| 20260831194705 | 24 | 56 | 0.0 | 4.8 | 0.00 | 0.00 | 0.00 | 63 | 1017.9 |
| 20260831193705 | 24 | 289 | 1.6 | 4.8 | 0.00 | 0.00 | 0.00 | 64 | 1017.9 |
| 20260831193205 | 24 | 51 | 1.6 | 4.8 | 0.00 | 0.00 | 0.00 | 61 | 1017.8 |
| 20260831192704 | 24 | 49 | 1.6 | 4.8 | 0.00 | 0.00 | 0.00 | 57 | 1017.9 |
| 20260831192205 | 24 | 335 | 1.6 | 3.2 | 0.00 | 0.00 | 0.00 | 66 | 1017.9 |
| 20260831191704 | 24 | 5 | 1.6 | 9.7 | 0.00 | 0.00 | 0.00 | 60 | 1017.9 |
| 20260831190704 | 23 | 214 | 0.0 | 3.2 | 0.00 | 0.00 | 0.00 | 64 | 1018.3 |
| 20260831190205 | 23 | 217 | 0.0 | 1.6 | 0.00 | 0.00 | 0.00 | 66 | 1018.3 |
| 20260831185705 | 23 | 217 | 1.6 | 3.2 | 0.00 | 0.00 | 0.00 | 63 | 1018.3 |
| 20260831184705 | 23 | 73 | 0.0 | 1.6 | 0.00 | 0.00 | 0.00 | 61 | 1018.4 |
| 20260831183705 | 23 | 67 | 1.6 | 4.8 | 0.00 | 0.00 | 0.00 | 61 | 1018.5 |
| 20260831183205 | 23 | 242 | 0.0 | 1.6 | 0.00 | 0.00 | 0.00 | 64 | 1018.6 |
| 20260831181204 | 23 | 244 | 0.0 | 1.6 | 0.00 | 0.00 | 0.00 | 63 | 1018.8 |
| 20260831180704 | 23 | 249 | 0.0 | 1.6 | 0.00 | 0.00 | 0.00 | 65 | 1018.8 |
| 20260831175704 | 23 | 255 | 0.0 | 3.2 | 0.00 | 0.00 | 0.00 | 62 | 1018.7 |
| 20260831174704 | 23 | 254 | 1.6 | 4.8 | 0.00 | 0.00 | 0.00 | 64 | 1018.9 |
| 20260831173204 | 23 | 31 | 1.6 | 4.8 | 0.00 | 0.00 | 0.00 | 57 | 1018.9 |
| 20260831172705 | 23 | 310 | 1.6 | 11.3 | 0.00 | 0.00 | 0.00 | 60 | 1019.0 |
| 20260831171705 | 23 | 86 | 0.0 | 3.2 | 0.00 | 0.00 | 0.00 | 59 | 1019.1 |
| 20260831170205 | 23 | 359 | 0.0 | 3.2 | 0.00 | 0.00 | 0.00 | 58 | 1019.2 |
| 20260831165705 | 22 | 101 | 0.0 | 4.8 | 0.00 | 0.00 | 0.00 | 59 | 1019.3 |
| 20260831165204 | 22 | 64 | 3.2 | 4.8 | 0.00 | 0.00 | 0.00 | 58 | 1019.4 |
| 20260831164205 | 22 | 284 | 0.0 | 4.8 | 0.00 | 0.00 | 0.00 | 68 | 1019.6 |
| 20260831161704 | 22 | 276 | 1.6 | 9.7 | 0.00 | 0.00 | 0.00 | 62 | 1019.8 |
| 20260831160705 | 22 | 286 | 1.6 | 4.8 | 0.00 | 0.00 | 0.00 | 63 | 1019.8 |
| 20260831160205 | 22 | 253 | 0.0 | 4.8 | 0.00 | 0.00 | 0.00 | 63 | 1019.8 |
| 20260831155704 | 21 | 278 | 3.2 | 4.8 | 0.00 | 0.00 | 0.00 | 63 | 1019.9 |
| 20260831155205 | 21 | 259 | 1.6 | 3.2 | 0.00 | 0.00 | 0.00 | 66 | 1019.9 |
| 20260831154705 | 21 | 258 | 0.0 | 3.2 | 0.00 | 0.00 | 0.00 | 63 | 1019.9 |
| 20260831154204 | 21 | 257 | 3.2 | 4.8 | 0.00 | 0.00 | 0.00 | 67 | 1019.9 |
| 20260831153205 | 21 | 261 | 3.2 | 8.0 | 0.00 | 0.00 | 0.00 | 66 | 1020.0 |
| 20260831151705 | 20 | 23 | 0.0 | 4.8 | 0.00 | 0.00 | 0.00 | 69 | 1020.1 |
| 20260831150705 | 20 | 257 | 0.0 | 3.2 | 0.00 | 0.00 | 0.00 | 73 | 1020.2 |
| 20260831150204 | 20 | 255 | 0.0 | 1.6 | 0.00 | 0.00 | 0.00 | 73 | 1020.2 |
| 20260831145204 | 20 | 277 | 1.6 | 4.8 | 0.00 | 0.00 | 0.00 | 73 | 1020.3 |
| 20260831144204 | 20 | 49 | 0.0 | 3.2 | 0.00 | 0.00 | 0.00 | 75 | 1020.4 |
| 20260831143704 | 20 | 57 | 0.0 | 3.2 | 0.00 | 0.00 | 0.00 | 72 | 1020.4 |
| 20260831141704 | 19 | 78 | 0.0 | 3.2 | 0.00 | 0.00 | 0.00 | 77 | 1020.5 |
| 20260831140204 | 18 | 82 | 0.0 | 1.6 | 0.00 | 0.00 | 0.00 | 80 | 1020.3 |
| 20260831135205 | 18 | 80 | 0.0 | 1.6 | 0.00 | 0.00 | 0.00 | 82 | 1020.4 |
| 20260831134205 | 17 | 80 | 1.6 | 4.8 | 0.00 | 0.00 | 0.00 | 81 | 1020.4 |
| 20260831133704 | 17 | 80 | 0.0 | 3.2 | 0.00 | 0.00 | 0.00 | 83 | 1020.4 |
| 20260831131705 | 16 | 167 | 0.0 | 0.0 | 0.00 | 0.00 | 0.00 | 90 | 1020.2 |
| 20260831130705 | 16 | 167 | 0.0 | 0.0 | 0.00 | 0.00 | 0.00 | 95 | 1020.3 |
| 20260831130204 | 16 | 167 | 0.0 | 0.0 | 0.00 | 0.00 | 0.00 | 95 | 1020.3 |
| 20260831125704 | 15 | 167 | 0.0 | 0.0 | 0.00 | 0.00 | 0.00 | 96 | 1020.3 |
| 20260831123704 | 15 | 168 | 0.0 | 1.6 | 0.00 | 0.00 | 0.00 | 98 | 1020.3 |
| 20260831123205 | 15 | 167 | 0.0 | 0.0 | 0.00 | 0.00 | 0.00 | 98 | 1020.3 |
| 20260831122704 | 15 | 167 | 0.0 | 0.0 | 0.00 | 0.00 | 0.00 | 98 | 1020.3 |
| 20260831120704 | 14 | 168 | 0.0 | 0.0 | 0.00 | 0.00 | 0.00 | 98 | 1020.2 |
| 20260831115704 | 14 | 168 | 0.0 | 0.0 | 0.00 | 0.00 | 0.00 | 97 | 1020.0 |
| 20260831115204 | 13 | 167 | 0.0 | 0.0 | 0.00 | 0.00 | 0.00 | 97 | 1019.9 |
| 20260831114205 | 13 | 168 | 0.0 | 0.0 | 0.00 | 0.00 | 0.00 | 96 | 1019.8 |
| 20260831111204 | 13 | 167 | 0.0 | 0.0 | 0.00 | 0.00 | 0.00 | 95 | 1019.7 |
| 20260831110705 | 13 | 167 | 0.0 | 0.0 | 0.00 | 0.00 | 0.00 | 95 | 1019.7 |
| 20260831110205 | 13 | 167 | 0.0 | 0.0 | 0.00 | 0.00 | 0.00 | 95 | 1019.8 |
| 20260831105204 | 13 | 167 | 0.0 | 0.0 | 0.00 | 0.00 | 0.00 | 94 | 1019.7 |
| 20260831104204 | 13 | 167 | 0.0 | 0.0 | 0.00 | 0.00 | 0.00 | 94 | 1019.6 |
| 20260831102205 | 13 | 167 | 0.0 | 0.0 | 0.00 | 0.00 | 0.00 | 94 | 1019.5 |
| 20260831101704 | 13 | 167 | 0.0 | 0.0 | 0.00 | 0.00 | 0.00 | 94 | 1019.5 |
| 20260831100704 | 14 | 167 | 0.0 | 0.0 | 0.00 | 0.00 | 0.00 | 94 | 1019.4 |
| 20260831100205 | 14 | 167 | 0.0 | 0.0 | 0.00 | 0.00 | 0.00 | 94 | 1019.3 |
| 20260831094704 | 14 | 167 | 0.0 | 0.0 | 0.00 | 0.00 | 0.00 | 94 | 1019.0 |
| 20260831093705 | 14 | 167 | 0.0 | 0.0 | 0.00 | 0.00 | 0.00 | 94 | 1018.9 |
| 20260831092704 | 14 | 167 | 0.0 | 0.0 | 0.00 | 0.00 | 0.00 | 94 | 1018.9 |
| 20260831092204 | 15 | 167 | 0.0 | 0.0 | 0.00 | 0.00 | 0.00 | 94 | 1018.8 |
| 20260831091704 | 15 | 167 | 0.0 | 0.0 | 0.00 | 0.00 | 0.00 | 94 | 1018.7 |
| 20260831091204 | 15 | 167 | 0.0 | 0.0 | 0.00 | 0.00 | 0.00 | 94 | 1018.6 |
| 20260831090704 | 15 | 167 | 0.0 | 0.0 | 0.00 | 0.00 | 0.00 | 94 | 1018.5 |
| 20260831090204 | 15 | 167 | 0.0 | 0.0 | 0.00 | 0.00 | 0.00 | 94 | 1018.5 |
| 20260831085204 | 15 | 167 | 0.0 | 0.0 | 0.00 | 0.00 | 0.00 | 94 | 1018.4 |
| 20260831083704 | 15 | 167 | 0.0 | 0.0 | 0.00 | 0.00 | 0.00 | 94 | 1018.3 |
| 20260831083204 | 15 | 167 | 0.0 | 0.0 | 0.00 | 0.00 | 0.00 | 94 | 1018.3 |
| 20260831082204 | 15 | 167 | 0.0 | 0.0 | 0.00 | 0.00 | 0.00 | 93 | 1018.3 |
| 20260831080704 | 16 | 167 | 0.0 | 0.0 | 0.00 | 0.00 | 0.00 | 93 | 1018.2 |
| 20260831080204 | 16 | 167 | 0.0 | 0.0 | 0.00 | 0.00 | 0.00 | 93 | 1018.1 |
| 20260831075704 | 16 | 167 | 0.0 | 0.0 | 0.00 | 0.00 | 0.00 | 93 | 1018.1 |
| 20260831074704 | 16 | 167 | 0.0 | 0.0 | 0.00 | 0.00 | 0.00 | 93 | 1017.9 |
| 20260831073704 | 16 | 167 | 0.0 | 0.0 | 0.00 | 0.00 | 0.00 | 93 | 1017.8 |
| 20260831072704 | 16 | 167 | 0.0 | 0.0 | 0.00 | 0.00 | 0.00 | 93 | 1017.9 |
| 20260831072204 | 16 | 167 | 0.0 | 0.0 | 0.00 | 0.00 | 0.00 | 93 | 1017.9 |
| 20260831071704 | 16 | 167 | 0.0 | 0.0 | 0.00 | 0.00 | 0.00 | 93 | 1017.8 |
| 20260831063704 | 17 | 167 | 0.0 | 0.0 | 0.00 | 0.00 | 0.00 | 92 | 1017.6 |
| 20260831063204 | 17 | 167 | 0.0 | 0.0 | 0.00 | 0.00 | 0.00 | 92 | 1017.6 |
| 20260831061204 | 17 | 167 | 0.0 | 0.0 | 0.00 | 0.00 | 0.00 | 92 | 1017.4 |
| 20260831055204 | 18 | 167 | 0.0 | 0.0 | 0.00 | 0.00 | 0.00 | 91 | 1017.3 |
| 20260831054704 | 18 | 167 | 0.0 | 0.0 | 0.00 | 0.00 | 0.00 | 91 | 1017.4 |
| 20260831053704 | 18 | 167 | 0.0 | 0.0 | 0.00 | 0.00 | 0.00 | 91 | 1017.3 |
| 20260831051704 | 18 | 167 | 0.0 | 0.0 | 0.00 | 0.00 | 0.00 | 90 | 1017.2 |
| 20260831051204 | 18 | 167 | 0.0 | 0.0 | 0.00 | 0.00 | 0.00 | 90 | 1017.2 |
| 20260831050704 | 18 | 167 | 0.0 | 0.0 | 0.00 | 0.00 | 0.00 | 91 | 1017.2 |
| 20260831045704 | 19 | 167 | 0.0 | 0.0 | 0.00 | 0.00 | 0.00 | 90 | 1017.2 |
| 20260831045204 | 19 | 167 | 0.0 | 0.0 | 0.00 | 0.00 | 0.00 | 90 | 1017.2 |
| 20260831044704 | 19 | 167 | 0.0 | 0.0 | 0.00 | 0.00 | 0.00 | 89 | 1017.0 |
| 20260831044204 | 19 | 167 | 0.0 | 0.0 | 0.00 | 0.00 | 0.00 | 89 | 1016.8 |
| 20260831043204 | 20 | 167 | 0.0 | 0.0 | 0.00 | 0.00 | 0.00 | 89 | 1016.7 |
| 20260831042704 | 20 | 167 | 0.0 | 0.0 | 0.00 | 0.00 | 0.00 | 89 | 1016.7 |
| 20260831042204 | 20 | 167 | 0.0 | 0.0 | 0.00 | 0.00 | 0.00 | 89 | 1016.6 |
| 20260831041203 | 20 | 167 | 0.0 | 0.0 | 0.00 | 0.00 | 0.00 | 88 | 1016.6 |
| 20260831040204 | 20 | 167 | 0.0 | 0.0 | 0.00 | 0.00 | 0.00 | 88 | 1016.5 |
| 20260831035704 | 20 | 167 | 0.0 | 0.0 | 0.00 | 0.00 | 0.00 | 89 | 1016.6 |
| 20260831034204 | 20 | 167 | 0.0 | 0.0 | 0.00 | 0.00 | 0.00 | 88 | 1016.6 |
| 20260831032703 | 20 | 167 | 0.0 | 0.0 | 0.00 | 0.00 | 0.00 | 88 | 1016.7 |
| 20260831030204 | 21 | 167 | 0.0 | 0.0 | 0.00 | 0.00 | 0.00 | 89 | 1016.6 |
| 20260831025204 | 21 | 167 | 0.0 | 0.0 | 0.00 | 0.00 | 0.00 | 89 | 1016.6 |
| 20260831024204 | 21 | 167 | 0.0 | 0.0 | 0.00 | 0.00 | 0.00 | 89 | 1016.5 |
| 20260831022203 | 21 | 168 | 0.0 | 0.0 | 0.00 | 0.00 | 0.00 | 90 | 1016.5 |
| 20260831021704 | 21 | 169 | 0.0 | 0.0 | 0.00 | 0.00 | 0.00 | 90 | 1016.4 |
| 20260831021204 | 21 | 169 | 0.0 | 1.6 | 0.00 | 0.00 | 0.00 | 89 | 1016.4 |
| 20260831020204 | 21 | 169 | 0.0 | 0.0 | 0.00 | 0.00 | 0.00 | 89 | 1016.4 |
| 20260831015704 | 21 | 169 | 0.0 | 0.0 | 0.00 | 0.00 | 0.00 | 89 | 1016.4 |
| 20260831012204 | 21 | 169 | 0.0 | 0.0 | 0.00 | 0.00 | 0.00 | 88 | 1016.0 |
| 20260831011204 | 21 | 169 | 0.0 | 0.0 | 0.00 | 0.00 | 0.00 | 86 | 1015.9 |
| 20260831010204 | 21 | 169 | 0.0 | 0.0 | 0.00 | 0.00 | 0.00 | 86 | 1015.8 |
| 20260831005204 | 21 | 169 | 0.0 | 0.0 | 0.00 | 0.00 | 0.00 | 86 | 1015.8 |
| 20260831004203 | 21 | 169 | 0.0 | 0.0 | 0.00 | 0.00 | 0.00 | 84 | 1015.5 |
| 20260831003704 | 21 | 169 | 0.0 | 0.0 | 0.00 | 0.00 | 0.00 | 84 | 1015.5 |
| 20260831003204 | 21 | 169 | 0.0 | 0.0 | 0.00 | 0.00 | 0.00 | 84 | 1015.5 |
| 20260831000204 | 22 | 169 | 0.0 | 0.0 | 0.00 | 0.00 | 0.00 | 84 | 1015.2 |
| 20260830234704 | 22 | 169 | 0.0 | 0.0 | 0.00 | 0.00 | 0.00 | 84 | 1015.0 |
| 20260830233204 | 22 | 169 | 0.0 | 0.0 | 0.00 | 0.00 | 0.00 | 83 | 1014.9 |
| 20260830232704 | 22 | 169 | 0.0 | 0.0 | 0.00 | 0.00 | 0.00 | 83 | 1014.9 |
| 20260830231704 | 22 | 169 | 0.0 | 0.0 | 0.00 | 0.00 | 0.00 | 81 | 1015.0 |
| 20260830231204 | 22 | 169 | 0.0 | 0.0 | 0.00 | 0.00 | 0.00 | 81 | 1015.0 |
| 20260830230204 | 22 | 169 | 0.0 | 0.0 | 0.00 | 0.00 | 0.00 | 79 | 1015.0 |
| 20260830225703 | 22 | 169 | 0.0 | 0.0 | 0.00 | 0.00 | 0.00 | 79 | 1015.1 |